Colorado River (Arizona), Lees Ferry (09380000)

StateArizonaLatestUnknown (6260 cfs)
RiverColorado RiverRatingObservedEstimated
Updated2026-05-05 9:00 (43 minutes ago)Flood - The river is flooding. Obstacles can be treacherous or deadly. The river should be avoided at this stage for casual trips and definitely for the inexperienced. Trips should be attempted only with protective gear and equipment.Flood(none)(none)
Discharge6260 cfs (median: 15000 cfs)High - The river is high and potentially dangerous, especially for the young and / or inexperienced. Normal stream obstacles are sometimes difficult to navigate. Extended distances can be attempted, but canoe travel may not be advisable.High(none)(none)
Height7.51 feetGood - Conditions are ideal for a canoe or kayak. Boats typically will drag on fewer than one-quarter of riffles, if at all, and portages are unnecessary or rare. Normal float lengths can be attempted without a problem.Good(none)(none)
TrendRising (rising over 24 hours)Low - River is low but can still be floated. Some riffles are okay but most come with significant dragging and might need a portage. Float lengths should be reduced to accommodate low flow, dragging, and portages.Low(none)(none)
USGSExternal icon USGS Site (External icon Duck Duck Go Maps)Poor - River is too low to float comfortably. Most or all riffles will drag or must be portaged and some obstacles (such as slick shelf rock) cause undue problems. Avoid the river at this stage for casual paddling trips.Poor(none)(none)

Trending Data

Plot Image

Trips for Colorado River (Arizona), Lees Ferry (09380000)

DateStartEndDistanceConditionDischargeHeightFishingDetails

A total of 0 rows are displayed.

Condition Descriptions

Fishing Conditions

Fish Species

Notes

Classic Trip List

The classic River Trips application is still available for use. It is updated with the new system using a data retrofit. It is no longer maintained. The original River Trips application is no longer updated (as of 1 Dec 2016) but can be checked for errors or for the condition of the data before it was converted to the new system.

Gauge Data Table

ObservationHeightDischargeMaximum
Discharge
Minimum
Discharge
Mean
Discharge
P05P10P20P25P50
(Median)
P75P80P90P95
2026-05-05 09:00 7.51 6260 77500 (1952) 1010 (1963) 21000 6720 8750 10300 10500 15000 27000 31700 47800 57800
2026-05-05 08:00 7.49 6210 77500 (1952) 1010 (1963) 21000 6720 8750 10300 10500 15000 27000 31700 47800 57800
2026-05-05 07:00 7.53 6320 77500 (1952) 1010 (1963) 21000 6720 8750 10300 10500 15000 27000 31700 47800 57800
2026-05-05 06:00 7.60 6530 77500 (1952) 1010 (1963) 21000 6720 8750 10300 10500 15000 27000 31700 47800 57800
2026-05-05 05:00 7.72 6900 77500 (1952) 1010 (1963) 21000 6720 8750 10300 10500 15000 27000 31700 47800 57800
2026-05-05 04:00 7.87 7370 77500 (1952) 1010 (1963) 21000 6720 8750 10300 10500 15000 27000 31700 47800 57800
2026-05-05 03:00 8.07 8040 77500 (1952) 1010 (1963) 21000 6720 8750 10300 10500 15000 27000 31700 47800 57800
2026-05-05 02:00 8.25 8660 77500 (1952) 1010 (1963) 21000 6720 8750 10300 10500 15000 27000 31700 47800 57800
2026-05-05 01:00 8.30 8840 77500 (1952) 1010 (1963) 21000 6720 8750 10300 10500 15000 27000 31700 47800 57800
2026-05-05 00:00 8.26 8700 77500 (1952) 1010 (1963) 21000 6720 8750 10300 10500 15000 27000 31700 47800 57800
2026-05-04 23:00 8.17 8380 77500 (1952) 1010 (1963) 21000 6720 8750 10300 10500 15000 27000 31700 47800 57800
2026-05-04 22:00 8.11 8170 69600 (1952) 1010 (1963) 20600 7690 8730 10300 10400 14400 26200 29600 48300 55700
2026-05-04 21:00 8.11 8170 69600 (1952) 1010 (1963) 20600 7690 8730 10300 10400 14400 26200 29600 48300 55700
2026-05-04 20:00 8.10 8140 69600 (1952) 1010 (1963) 20600 7690 8730 10300 10400 14400 26200 29600 48300 55700
2026-05-04 19:00 8.11 8170 69600 (1952) 1010 (1963) 20600 7690 8730 10300 10400 14400 26200 29600 48300 55700
2026-05-04 18:00 8.11 8170 69600 (1952) 1010 (1963) 20600 7690 8730 10300 10400 14400 26200 29600 48300 55700
2026-05-04 17:00 8.09 8110 69600 (1952) 1010 (1963) 20600 7690 8730 10300 10400 14400 26200 29600 48300 55700
2026-05-04 16:00 8.09 8110 69600 (1952) 1010 (1963) 20600 7690 8730 10300 10400 14400 26200 29600 48300 55700
2026-05-04 15:00 8.09 8110 69600 (1952) 1010 (1963) 20600 7690 8730 10300 10400 14400 26200 29600 48300 55700
2026-05-04 14:00 8.05 7970 69600 (1952) 1010 (1963) 20600 7690 8730 10300 10400 14400 26200 29600 48300 55700
2026-05-04 13:00 8.00 7800 69600 (1952) 1010 (1963) 20600 7690 8730 10300 10400 14400 26200 29600 48300 55700
2026-05-04 12:00 7.93 7570 69600 (1952) 1010 (1963) 20600 7690 8730 10300 10400 14400 26200 29600 48300 55700
2026-05-04 11:00 7.80 7150 69600 (1952) 1010 (1963) 20600 7690 8730 10300 10400 14400 26200 29600 48300 55700
2026-05-04 10:00 7.63 6620 69600 (1952) 1010 (1963) 20600 7690 8730 10300 10400 14400 26200 29600 48300 55700
2026-05-04 09:00 7.50 6240 69600 (1952) 1010 (1963) 20600 7690 8730 10300 10400 14400 26200 29600 48300 55700
2026-05-04 08:00 7.47 6150 69600 (1952) 1010 (1963) 20600 7690 8730 10300 10400 14400 26200 29600 48300 55700
2026-05-04 07:00 7.47 6150 69600 (1952) 1010 (1963) 20600 7690 8730 10300 10400 14400 26200 29600 48300 55700
2026-05-04 06:00 7.49 6210 69600 (1952) 1010 (1963) 20600 7690 8730 10300 10400 14400 26200 29600 48300 55700
2026-05-04 05:00 7.52 6290 69600 (1952) 1010 (1963) 20600 7690 8730 10300 10400 14400 26200 29600 48300 55700
2026-05-04 04:00 7.58 6470 69600 (1952) 1010 (1963) 20600 7690 8730 10300 10400 14400 26200 29600 48300 55700
2026-05-04 03:00 7.67 6740 69600 (1952) 1010 (1963) 20600 7690 8730 10300 10400 14400 26200 29600 48300 55700
2026-05-04 02:00 7.79 7120 69600 (1952) 1010 (1963) 20600 7690 8730 10300 10400 14400 26200 29600 48300 55700
2026-05-04 01:00 7.95 7640 69600 (1952) 1010 (1963) 20600 7690 8730 10300 10400 14400 26200 29600 48300 55700
2026-05-03 23:00 8140 69600 (1952) 1010 (1963) 20600 7690 8730 10300 10400 14400 26200 29600 48300 55700
2026-05-03 22:00 8.06 8000 69000 (1938) 1020 (1963) 19900 7740 8970 10100 10200 14600 25200 27400 46500 51300
2026-05-03 21:00 8.11 8170 69000 (1938) 1020 (1963) 19900 7740 8970 10100 10200 14600 25200 27400 46500 51300
2026-05-03 20:00 8.11 8170 69000 (1938) 1020 (1963) 19900 7740 8970 10100 10200 14600 25200 27400 46500 51300
2026-05-03 19:00 8.09 8110 69000 (1938) 1020 (1963) 19900 7740 8970 10100 10200 14600 25200 27400 46500 51300
2026-05-03 18:00 8.05 7970 69000 (1938) 1020 (1963) 19900 7740 8970 10100 10200 14600 25200 27400 46500 51300
2026-05-03 17:00 8.06 8000 69000 (1938) 1020 (1963) 19900 7740 8970 10100 10200 14600 25200 27400 46500 51300
2026-05-03 16:00 8.05 7970 69000 (1938) 1020 (1963) 19900 7740 8970 10100 10200 14600 25200 27400 46500 51300
2026-05-03 15:00 8.01 7840 69000 (1938) 1020 (1963) 19900 7740 8970 10100 10200 14600 25200 27400 46500 51300
2026-05-03 14:00 7.93 7570 69000 (1938) 1020 (1963) 19900 7740 8970 10100 10200 14600 25200 27400 46500 51300
2026-05-03 13:00 7.80 7150 69000 (1938) 1020 (1963) 19900 7740 8970 10100 10200 14600 25200 27400 46500 51300
2026-05-03 12:00 7.63 6620 69000 (1938) 1020 (1963) 19900 7740 8970 10100 10200 14600 25200 27400 46500 51300
2026-05-03 11:00 7.49 6210 69000 (1938) 1020 (1963) 19900 7740 8970 10100 10200 14600 25200 27400 46500 51300
2026-05-03 10:00 7.47 6150 69000 (1938) 1020 (1963) 19900 7740 8970 10100 10200 14600 25200 27400 46500 51300
2026-05-03 09:00 7.47 6150 69000 (1938) 1020 (1963) 19900 7740 8970 10100 10200 14600 25200 27400 46500 51300
2026-05-03 08:00 7.47 6150 69000 (1938) 1020 (1963) 19900 7740 8970 10100 10200 14600 25200 27400 46500 51300
2026-05-03 07:00 7.49 6210 69000 (1938) 1020 (1963) 19900 7740 8970 10100 10200 14600 25200 27400 46500 51300
2026-05-03 06:00 7.50 6240 69000 (1938) 1020 (1963) 19900 7740 8970 10100 10200 14600 25200 27400 46500 51300
2026-05-03 05:00 7.53 6320 69000 (1938) 1020 (1963) 19900 7740 8970 10100 10200 14600 25200 27400 46500 51300
2026-05-03 04:00 7.58 6470 69000 (1938) 1020 (1963) 19900 7740 8970 10100 10200 14600 25200 27400 46500 51300
2026-05-03 03:00 7.67 6740 69000 (1938) 1020 (1963) 19900 7740 8970 10100 10200 14600 25200 27400 46500 51300
2026-05-03 02:00 7.80 7150 69000 (1938) 1020 (1963) 19900 7740 8970 10100 10200 14600 25200 27400 46500 51300
2026-05-03 01:00 7.96 7670 69000 (1938) 1020 (1963) 19900 7740 8970 10100 10200 14600 25200 27400 46500 51300
2026-05-03 00:00 8.08 8070 69000 (1938) 1020 (1963) 19900 7740 8970 10100 10200 14600 25200 27400 46500 51300
2026-05-02 23:00 8.11 8170 69000 (1938) 1020 (1963) 19900 7740 8970 10100 10200 14600 25200 27400 46500 51300
2026-05-02 22:00 8.11 8170 70800 (1952) 1030 (1963) 19500 7520 8780 9950 10200 14200 24700 26800 42300 50300
2026-05-02 21:00 8.10 8140 70800 (1952) 1030 (1963) 19500 7520 8780 9950 10200 14200 24700 26800 42300 50300
2026-05-02 20:00 8.11 8170 70800 (1952) 1030 (1963) 19500 7520 8780 9950 10200 14200 24700 26800 42300 50300
2026-05-02 19:00 8.11 8170 70800 (1952) 1030 (1963) 19500 7520 8780 9950 10200 14200 24700 26800 42300 50300
2026-05-02 18:00 8.09 8110 70800 (1952) 1030 (1963) 19500 7520 8780 9950 10200 14200 24700 26800 42300 50300
2026-05-02 17:00 8.09 8110 70800 (1952) 1030 (1963) 19500 7520 8780 9950 10200 14200 24700 26800 42300 50300
2026-05-02 16:00 8.07 8040 70800 (1952) 1030 (1963) 19500 7520 8780 9950 10200 14200 24700 26800 42300 50300
2026-05-02 15:00 8.03 7900 70800 (1952) 1030 (1963) 19500 7520 8780 9950 10200 14200 24700 26800 42300 50300
2026-05-02 14:00 7.94 7600 70800 (1952) 1030 (1963) 19500 7520 8780 9950 10200 14200 24700 26800 42300 50300
2026-05-02 13:00 7.81 7180 70800 (1952) 1030 (1963) 19500 7520 8780 9950 10200 14200 24700 26800 42300 50300
2026-05-02 12:00 7.64 6650 70800 (1952) 1030 (1963) 19500 7520 8780 9950 10200 14200 24700 26800 42300 50300
2026-05-02 11:00 7.49 6210 70800 (1952) 1030 (1963) 19500 7520 8780 9950 10200 14200 24700 26800 42300 50300
2026-05-02 10:00 7.47 6150 70800 (1952) 1030 (1963) 19500 7520 8780 9950 10200 14200 24700 26800 42300 50300
2026-05-02 09:00 7.48 6180 70800 (1952) 1030 (1963) 19500 7520 8780 9950 10200 14200 24700 26800 42300 50300
2026-05-02 08:00 7.50 6240 70800 (1952) 1030 (1963) 19500 7520 8780 9950 10200 14200 24700 26800 42300 50300
2026-05-02 07:00 7.54 6350 70800 (1952) 1030 (1963) 19500 7520 8780 9950 10200 14200 24700 26800 42300 50300
2026-05-02 06:00 7.61 6560 70800 (1952) 1030 (1963) 19500 7520 8780 9950 10200 14200 24700 26800 42300 50300
2026-05-02 05:00 7.71 6870 70800 (1952) 1030 (1963) 19500 7520 8780 9950 10200 14200 24700 26800 42300 50300
2026-05-02 04:00 7.86 7340 70800 (1952) 1030 (1963) 19500 7520 8780 9950 10200 14200 24700 26800 42300 50300
2026-05-02 03:00 8.06 8000 70800 (1952) 1030 (1963) 19500 7520 8780 9950 10200 14200 24700 26800 42300 50300
2026-05-02 02:00 8.23 8590 70800 (1952) 1030 (1963) 19500 7520 8780 9950 10200 14200 24700 26800 42300 50300
2026-05-02 01:00 8.31 8880 70800 (1952) 1030 (1963) 19500 7520 8780 9950 10200 14200 24700 26800 42300 50300
2026-05-02 00:00 8.28 8770 70800 (1952) 1030 (1963) 19500 7520 8780 9950 10200 14200 24700 26800 42300 50300
2026-05-01 23:00 8.19 8450 70800 (1952) 1030 (1963) 19500 7520 8780 9950 10200 14200 24700 26800 42300 50300

A total of 82 rows are displayed for years 1922 through 2025.